Weather History for KEZS - February, 2014

Change the Weather History Date:

Friday, February 21, 2014

  Actual Average (KGRB) Record (KGRB)
Temperature  
Mean Temperature 26 °F 22 °F  
Max Temperature 36 °F 30 °F 60 °F (1930)
Min Temperature 17 °F 14 °F -18 °F (2008)
Degree Days  
Heating Degree Days 38 43  
Month to date heating degree days 960  
Since 1 July heating degree days 5549  
Cooling Degree Days 0 0  
Month to date cooling degree days 0  
Year to date cooling degree days 0  
Moisture  
Dew Point 16 °F    
Average Humidity 73    
Maximum Humidity 93    
Minimum Humidity 62    
Precipitation  
Precipitation 0.36 in 0.05 in 1.21 in (1985)
Month to date precipitation 0.77  
Year to date precipitation 1.90  
Snow  
Snow 0.00 in 0.40 in 4.50 in (2011)
Month to date snowfall 7.5  
Since 1 July snowfall 37.8  
Snow Depth -    
Sea Level Pressure  
Sea Level Pressure 29.28 in    
Wind  
Wind Speed 16 mph (WSW)    
Max Wind Speed 25 mph    
Max Gust Speed 40 mph    
Visibility 8 miles    
Events Rain , Snow    
T = Trace of Precipitation, MM = Missing Value Source: NWS Daily Summary

Daily Weather History Graph

Daily Weather History Graph

Search for Another Location

Airport or City:

Trip Planner

Search our weather history database for the weather conditions in past years. The results will help you decide how hot, cold, wet, or windy it might be!

Date:

Astronomy

Feb. 21, 2014 Rise Set
Actual Time 6:45 AM CST 5:31 PM CST
Civil Twilight 6:15 AM CST 6:00 PM CST
Nautical Twilight 5:41 AM CST 6:34 PM CST
Astronomical Twilight 5:07 AM CST 7:08 PM CST
Moon No Moon Rise 9:52 AM CST (2/21)
Length of Visible Light 11h 45m
Length of Day
10h 45m
Waning Gibbous, 60% of the Moon is Illuminated
Feb 21
Waning Gibbous
Feb 22
Last Quarter
Mar 1
New
Mar 8
First Quarter
Mar 16
Full

Hourly Weather History & Observations

Time (CST) Temp. Windchill Dew Point Humidity Pressure Visibility Wind Dir Wind Speed Gust Speed Precip Events Conditions
12:15 AM 36.7 °F 28.9 °F 34.7 °F 93% 28.89 in 3.0 mi South 11.5 mph 16.1 mph N/A   Drizzle
12:35 AM 36.7 °F 29.4 °F 34.7 °F 93% 28.89 in 10.0 mi SSW 10.4 mph 17.3 mph N/A Rain Rain
12:55 AM 36.0 °F 27.5 °F 33.3 °F 90% 28.90 in 10.0 mi SSW 12.7 mph 20.7 mph N/A Rain Rain
1:15 AM 35.6 °F 27.1 °F 32.9 °F 90% 28.91 in 10.0 mi SSW 12.7 mph 21.9 mph N/A   Light Drizzle
1:35 AM 35.2 °F 28.1 °F 32.5 °F 90% 28.91 in 2.0 mi SW 9.2 mph 21.9 mph N/A   Drizzle
1:55 AM 35.1 °F 26.9 °F 32.5 °F 91% 28.92 in 2.5 mi SW 11.5 mph 23.0 mph N/A   Drizzle
2:15 AM 35.1 °F 26.9 °F 32.7 °F 91% 28.92 in 5.0 mi SW 11.5 mph 20.7 mph N/A   Light Drizzle
2:35 AM 35.1 °F 26.4 °F 32.4 °F 90% 28.92 in 7.0 mi SW 12.7 mph 19.6 mph N/A Rain Light Rain
2:55 AM 35.4 °F 26.0 °F 32.4 °F 89% 28.93 in 10.0 mi SW 15.0 mph 25.3 mph N/A   Overcast
3:20 AM 35.4 °F 27.3 °F 32.0 °F 87% 28.95 in 4.0 mi SW 11.5 mph 20.7 mph N/A Snow Light Snow
3:35 AM 35.2 °F 26.2 °F 32.0 °F 88% 28.97 in 7.0 mi SW 13.8 mph 19.6 mph N/A Snow Light Snow
3:55 AM 35.2 °F 24.7 °F 31.8 °F 87% 28.99 in 10.0 mi SW 18.4 mph 25.3 mph N/A Snow Light Snow
4:15 AM 34.7 °F 25.5 °F 30.7 °F 85% 29.02 in 5.0 mi SW 13.8 mph 29.9 mph N/A Snow Light Snow
4:35 AM 33.4 °F 23.9 °F 29.8 °F 87% 29.03 in 2.5 mi SW 13.8 mph 28.8 mph N/A Snow Light Snow
4:55 AM 31.6 °F 18.1 °F 26.8 °F 82% 29.06 in 3.0 mi WSW 25.3 mph 36.8 mph N/A Snow Light Snow
5:15 AM 30.7 °F 19.6 °F 24.8 °F 79% 29.07 in 3.0 mi WSW 16.1 mph 33.4 mph N/A Snow Light Snow
5:35 AM 29.7 °F 16.4 °F 25.2 °F 83% 29.09 in 2.0 mi SW 21.9 mph 35.7 mph N/A Snow Light Snow
5:55 AM 28.8 °F 15.9 °F 23.0 °F 79% 29.10 in 2.0 mi SW 19.6 mph 29.9 mph N/A Snow Light Snow
6:15 AM 26.8 °F 12.3 °F 20.1 °F 76% 29.12 in 2.0 mi WSW 23.0 mph 35.7 mph N/A Snow Light Snow
6:35 AM 25.7 °F 10.8 °F 19.8 °F 78% 29.14 in 1.5 mi WSW 23.0 mph 29.9 mph N/A Snow Light Snow
6:55 AM 24.8 °F 9.6 °F 17.4 °F 74% 29.15 in 3.0 mi WSW 23.0 mph 29.9 mph N/A Snow Light Snow
7:15 AM 23.5 °F 8.0 °F 15.4 °F 71% 29.16 in 5.0 mi West 23.0 mph 35.7 mph N/A Snow Light Snow
7:35 AM 22.6 °F 9.2 °F 14.9 °F 72% 29.17 in 7.0 mi WSW 16.1 mph 26.5 mph N/A Snow Light Snow
8:00 AM 21.4 °F 5.1 °F 12.6 °F 69% 29.19 in 10.0 mi WSW 23.0 mph 31.1 mph N/A   Overcast
8:15 AM 21.4 °F 8.0 °F 13.8 °F 73% 29.19 in 5.0 mi WSW 15.0 mph 25.3 mph N/A Snow Light Snow
8:35 AM 21.0 °F 5.7 °F 12.0 °F 68% 29.20 in 7.0 mi West 19.6 mph 33.4 mph N/A   Overcast
8:55 AM 21.0 °F 5.7 °F 11.1 °F 66% 29.21 in 7.0 mi WSW 19.6 mph 34.5 mph N/A   Mostly Cloudy
9:15 AM 20.3 °F 6.1 °F 11.1 °F 68% 29.21 in 5.0 mi WSW 16.1 mph 34.5 mph N/A Snow Light Snow
9:35 AM 20.3 °F 4.0 °F 12.0 °F 70% 29.23 in 4.0 mi WSW 21.9 mph 29.9 mph N/A Snow Light Snow
9:55 AM 20.3 °F 3.7 °F 10.2 °F 65% 29.24 in 4.0 mi West 23.0 mph 40.3 mph N/A   Haze
10:15 AM 20.1 °F 4.6 °F 11.5 °F 69% 29.25 in 5.0 mi WSW 19.6 mph 26.5 mph N/A Snow Light Snow
10:35 AM 20.3 °F 3.3 °F 12.4 °F 71% 29.26 in 2.5 mi WSW 24.2 mph 33.4 mph N/A Snow Light Snow
10:55 AM 20.8 °F 3.7 °F 9.5 °F 62% 29.27 in 10.0 mi WSW 25.3 mph 34.5 mph N/A Snow Light Snow
11:15 AM 19.9 °F 2.5 °F 9.3 °F 63% 29.28 in 10.0 mi West 25.3 mph 40.3 mph N/A   Overcast
11:35 AM 19.4 °F 3.6 °F 8.6 °F 63% 29.29 in 10.0 mi WSW 19.6 mph 32.2 mph N/A   Overcast
11:55 AM 19.4 °F 2.5 °F 9.7 °F 66% 29.29 in 7.0 mi WSW 23.0 mph 31.1 mph N/A Snow Light Snow
12:15 PM 19.6 °F 3.1 °F 8.8 °F 63% 29.29 in 10.0 mi WSW 21.9 mph 32.2 mph N/A   Overcast
12:35 PM 19.9 °F 5.7 °F 9.1 °F 63% 29.30 in 10.0 mi West 16.1 mph 28.8 mph N/A   Overcast
12:55 PM 19.9 °F 3.2 °F 9.7 °F 64% 29.31 in 10.0 mi WSW 23.0 mph 29.9 mph N/A   Overcast
1:15 PM 20.5 °F 5.9 °F 10.8 °F 66% 29.32 in 10.0 mi WSW 17.3 mph 27.6 mph N/A Snow Light Snow
1:35 PM 20.3 °F 4.8 °F 10.8 °F 67% 29.33 in 10.0 mi WSW 19.6 mph 31.1 mph N/A Snow Light Snow
1:55 PM 21.0 °F 4.3 °F 10.8 °F 65% 29.34 in 10.0 mi WSW 24.2 mph 32.2 mph N/A   Overcast
2:15 PM 21.9 °F 8.2 °F 11.7 °F 65% 29.34 in 10.0 mi WSW 16.1 mph 26.5 mph N/A   Overcast
2:35 PM 21.6 °F 5.7 °F 11.3 °F 65% 29.35 in 10.0 mi WSW 21.9 mph 33.4 mph N/A   Overcast
2:55 PM 20.8 °F 4.0 °F 10.2 °F 64% 29.37 in 10.0 mi WSW 24.2 mph 33.4 mph N/A   Overcast
3:15 PM 20.1 °F 5.4 °F 10.2 °F 66% 29.38 in 10.0 mi WSW 17.3 mph 27.6 mph N/A   Overcast
3:35 PM 19.8 °F 2.9 °F 9.5 °F 64% 29.40 in 10.0 mi WSW 23.0 mph 38.0 mph N/A   Overcast
3:55 PM 19.8 °F 3.7 °F 10.2 °F 67% 29.41 in 10.0 mi WSW 20.7 mph 27.6 mph N/A   Overcast
4:15 PM 19.9 °F 6.7 °F 10.6 °F 67% 29.41 in 10.0 mi West 13.8 mph 32.2 mph N/A   Overcast
4:35 PM 20.1 °F 5.9 °F 11.3 °F 69% 29.43 in 10.0 mi WSW 16.1 mph 31.1 mph N/A Snow Light Snow
4:55 PM 20.1 °F 4.2 °F 11.3 °F 69% 29.44 in 10.0 mi WSW 20.7 mph 27.6 mph N/A Snow Light Snow
5:15 PM 19.9 °F 4.3 °F 11.5 °F 70% 29.45 in 10.0 mi WSW 19.6 mph 33.4 mph N/A Snow Light Snow
5:35 PM 19.8 °F 5.9 °F 11.3 °F 70% 29.46 in 10.0 mi WSW 15.0 mph 26.5 mph N/A Snow Light Snow
5:55 PM 19.9 °F 5.7 °F 12.0 °F 71% 29.47 in 10.0 mi WSW 16.1 mph 21.9 mph N/A Snow Light Snow
6:15 PM 19.9 °F 4.3 °F 11.3 °F 69% 29.48 in 10.0 mi West 19.6 mph 34.5 mph N/A Snow Light Snow
6:35 PM 19.9 °F 6.2 °F 11.7 °F 70% 29.49 in 10.0 mi West 15.0 mph 25.3 mph N/A Snow Light Snow
6:55 PM 19.9 °F 6.2 °F 11.7 °F 70% 29.50 in 10.0 mi WSW 15.0 mph 28.8 mph N/A Snow Light Snow
7:15 PM 19.4 °F 3.2 °F 10.4 °F 68% 29.51 in 7.0 mi WSW 20.7 mph 39.1 mph N/A Snow Light Snow
7:35 PM 19.0 °F 4.0 °F 10.4 °F 69% 29.53 in 10.0 mi West 17.3 mph 31.1 mph N/A Snow Light Snow
7:55 PM 18.9 °F 2.9 °F 10.4 °F 70% 29.53 in 10.0 mi WSW 19.6 mph 26.5 mph N/A Snow Light Snow
8:15 PM 18.9 °F 4.3 °F 10.4 °F 70% 29.54 in 10.0 mi WSW 16.1 mph 27.6 mph N/A Snow Light Snow
8:35 PM 18.5 °F 5.5 °F 10.4 °F 71% 29.55 in 10.0 mi West 12.7 mph 24.2 mph N/A Snow Light Snow
8:55 PM 18.5 °F 3.8 °F 10.0 °F 70% 29.56 in 10.0 mi West 16.1 mph 28.8 mph N/A Snow Light Snow
9:15 PM 18.5 °F 2.9 °F 10.2 °F 70% 29.56 in 10.0 mi West 18.4 mph 31.1 mph N/A Snow Light Snow
9:35 PM 18.3 °F 3.1 °F 9.7 °F 69% 29.57 in 10.0 mi West 17.3 mph 28.8 mph N/A Snow Light Snow
9:55 PM 18.1 °F 3.4 °F 9.3 °F 68% 29.58 in 10.0 mi WSW 16.1 mph 29.9 mph N/A   Overcast
10:15 PM 17.8 °F 1.1 °F 8.6 °F 67% 29.58 in 10.0 mi West 20.7 mph 29.9 mph N/A   Overcast
10:35 PM 17.6 °F 2.7 °F 8.6 °F 68% 29.59 in 10.0 mi West 16.1 mph 26.5 mph N/A Snow Light Snow
10:55 PM 17.4 °F 1.9 °F 8.6 °F 68% 29.59 in 10.0 mi WSW 17.3 mph - N/A Snow Light Snow
11:15 PM 17.4 °F 1.9 °F 8.6 °F 68% 29.59 in 1.0 mi West 17.3 mph 24.2 mph N/A   Haze
11:35 PM 17.4 °F 4.1 °F 8.6 °F 68% 29.60 in 10.0 mi WSW 12.7 mph 26.5 mph N/A   Overcast
11:55 PM 17.2 °F 1.2 °F 9.0 °F 70% 29.60 in 10.0 mi West 18.4 mph 25.3 mph N/A Snow Light Snow